Location: Bern�tre
(50.1974°N, 2.0915°E)
Time: 06:21:25
(UTC+00:00)

CREW DRAGON DEMO-1 DEB - Pass Details

Date: 18 September 2020
Orbit: 362 x 364 km, 51.6° (Epoch: 22 October)

Event Time Altitude Azimuth Distance (km) Brightness Sun altitude
Rises 20:11:05 0° 283° (WNW) 2,201 8.0 -21.1°
Reaches altitude 10° 20:13:07 10° 285° (WNW) 1,354 6.7 -21.4°
Enters shadow 20:15:20 45° 292° (WNW) 513 3.9 -21.7°
